Welcome to the New NWS' Forecast!
Most changes are behind the scenes, but click here for differences you might notice.
Latest weather observations around

Fayetteville, Drake Field (KFYV)

Using English Units (Switch to International System of Units)
Date/ Time (CDT) Wind (mph) Vis. (mi) Weather Sky Cond. Temp (°F) Rel. Humidity Wind Chill (°F) Heat Index (°F) Pressure Precip. (in)
Air Dwpt 6 hour Altimeter (inHg) Sea level (inHg) 1 hr 3 hr 6 hr
Max Min
Apr 28 05:53 ESE 5 10 Mostly Cloudy BKN085 56 55     97%     29.67 29.65 0    
Apr 28 04:53 ENE 6 10 Cloudy FEW065 OVC085 55 54     96%     29.71 29.68 0    
Apr 28 03:53 Calm 10 Light Rain BKN090 OVC110 54 54     100%     29.75 29.73 0 0  
Apr 28 02:53 ENE 5 10 Cloudy OVC090 56 52     87%     29.75 29.73 0    
Apr 28 01:53 E 3 10 Clear CLR 56 52     87%     29.76 29.74      
Apr 28 00:53 ENE 5 10 Clear CLR 56 52     87%     29.75 29.73     0
Apr 27 23:53 ENE 3 10 Clear CLR 57 52     83%     29.75 29.73      
Apr 27 22:53 E 5 10 Mostly Cloudy BKN100 BKN120 56 53     90%     29.74 29.72 0    
Apr 27 21:53 Calm 10 Mostly Clear FEW120 56 53     90%     29.75 29.74      
Apr 27 20:53 Calm 10 Mostly Clear FEW120 59 49     69%     29.72 29.71      
Apr 27 19:53 E 5 10 Clear CLR 59 50     72%     29.69 29.69      
Apr 27 18:53 E 3 10 Mostly Clear FEW120 62 44     52%     29.7 29.69      
Apr 27 17:53 SSE 7 10 Partly Cloudy SCT120 63 43     48%     29.7 29.69      
Apr 27 16:53 SSE 13 10 Clear CLR 65 44     47%     29.7 29.7      
Apr 27 15:53 S 11 10 Clear CLR 65 50     58%     29.73 29.72      
Apr 27 14:53 3 10 Clear CLR 64 43     46%     29.75 29.74      
Apr 27 13:53 SW 6 10 Clear CLR 61 44     54%     29.8 29.8      
Apr 27 12:53 W 5 10 Clear CLR 59 45     60%     29.82 29.81     0
Apr 27 12:00 NE 7 10 Mostly Clear FEW002 57 45     64%     29.81        
Apr 27 11:53 NE 5 10 Clear CLR 57 44     62%     29.82 29.81      
Apr 27 10:53 Calm 10 Clear CLR 53 45     74%     29.84 29.83      
Apr 27 09:53 ENE 3 10 Clear CLR 49 44     83% 48   29.81 29.81   0  
Apr 27 09:19 E 3 10 Mostly Clear FEW003 46 45     96% 45   29.8        
Apr 27 08:58 E 3 1 Fog/Mist VV003 44 44     100% 43   29.79        
Apr 27 08:53 E 3 10 Partly Cloudy SCT004 45 45     100% 44   29.79 29.79 0    
Apr 27 08:38 Calm 9 Partly Cloudy SCT002 44 44     100%     29.79   0    
Apr 27 08:19 S 3 3 Fog/Mist OVC002 42 42     100% 40   29.8        
Apr 27 08:12 S 5 1.5 Fog/Mist OVC002 42 42     100% 39   29.8        
Apr 27 08:03 SSE 3 2 Fog/Mist OVC002 41 41     100% 39   29.79        
Apr 27 07:53 S 3 0.25 Fog VV002 40 40     100% 38   29.8 29.8      
Apr 27 06:53 Calm 0.25 Fog VV002 37 37     100%     29.77 29.78      
Apr 27 05:53 Calm 0.25 Fog VV001 37 37     100%     29.77 29.77      
Apr 27 04:53 S 3 0.5 Fog VV002 38 38     100% 36   29.74 29.75      
Apr 27 03:53 S 5 0.25 Fog VV001 39 39     100% 36   29.73 29.73      
Apr 27 02:53 Calm 0.25 Fog VV001 39 39     100%     29.71 29.72      
Apr 27 02:30 S 5 0.25 Fog VV001 39 39     100% 36   29.71        
Apr 27 02:22 SSE 3 1.5 Fog/Mist SCT002 39 39     100% 37   29.71        
Apr 27 02:17 Calm 8 Mostly Clear FEW002 40 40     100%     29.71        
Apr 27 02:02 SSW 3 2.5 Fog/Mist FEW002 40 40     100% 38   29.73        
Apr 27 01:53 Calm 4 Fog/Mist CLR 41 41     100%     29.73 29.73      
Apr 27 00:53 Calm 10 Partly Cloudy SCT048 43 43     100%     29.74 29.73      
Apr 26 23:53 Calm 10 Cloudy OVC044 45 44     97%     29.74 29.73      
Apr 26 23:08 W 3 10 Cloudy FEW008 BKN034 OVC043 45 43     93% 44   29.72        
Apr 26 22:53 Calm 10 Cloudy SCT013 OVC033 45 44     97%     29.71 29.7      
Apr 26 22:10 Calm 10 Cloudy SCT013 OVC030 45 44     97%     29.72        
Apr 26 22:00 5 10 Cloudy BKN013 BKN018 OVC030 45 43     93% 43   29.71        
Apr 26 21:53 7 10 Cloudy BKN015 OVC030 44 44     100% 40   29.71 29.7      
Apr 26 20:53 NW 11 10 Cloudy OVC009 44 44     100% 38   29.67 29.66      
Apr 26 19:53 NW 9 10 Cloudy BKN009 OVC014 45 44     97% 40   29.64 29.63      
Apr 26 18:53 NW 13 4 Fog/Mist BKN007 OVC013 45 45     100% 39   29.61 29.6 0   0
Apr 26 17:53 NW 14 2.5 Fog/Mist OVC007 46 46     100% 40   29.61 29.59      
Apr 26 16:53 NNW 11 8 Cloudy OVC006 47 47     100% 42   29.56 29.55 0    
Apr 26 15:53 NW 9 3 Light Rain and Fog/Mist OVC007 49 49     100% 45   29.57 29.55 0 0  
Apr 26 14:53 NW 8 8 Light Rain BKN009 OVC015 49 49     100% 45   29.58 29.57 0    
Apr 26 13:53 NW 10 7 Light Rain OVC008 50 50     100% 46   29.53 29.52 0    
Apr 26 12:53 6 4 Light Rain and Fog/Mist OVC008 51 51     100%     29.58 29.56 0   1
Apr 26 11:53 WNW 9 8 Light Rain OVC007 52 52     100%     29.56 29.54 0    
Apr 26 11:15 WNW 8 3 Rain and Fog/Mist BKN006 OVC014 53 53     100%     29.54   0    
Apr 26 11:02 WNW 11 2.5 Heavy Rain and Fog/Mist BKN006 OVC013 55 55     100%     29.53   0    
Apr 26 10:55 W 13 4 Rain and Fog/Mist FEW006 BKN013 OVC070 58 58     100%     29.53   0    
Apr 26 10:53 WNW 7 4 Thunderstorms and Rain and Fog/Mist BKN008 OVC090 58 58     100%     29.53 29.5 0    
Apr 26 10:38 WSW 7 3 Thunderstorms and Rain and Fog/Mist BKN008 OVC090 58 58     100%     29.53   0    
Apr 26 10:30 Calm 1.75 Thunderstorms and Rain and Fog/Mist BKN008 OVC090 58 58     100%     29.51   0    
Apr 26 10:20 Calm 5 Thunderstorms and Light Rain and Fog/Mist BKN008 OVC090 58 58     100%     29.52   0    
Apr 26 10:05 6 8 Light Rain BKN008 OVC090 58 58     100%     29.51   0    
Apr 26 09:53 E 10 8 Light Rain BKN008 BKN020 OVC075 58 58     100%     29.47 29.44 0 1  
Apr 26 09:29 E 14 4 Rain and Fog/Mist BKN008 BKN020 OVC075 58 58     100%     29.47   0    
Apr 26 09:07 ENE 7 5 Thunderstorms and Rain and Fog/Mist BKN008 OVC020 58 58     100%     29.49   0    
Apr 26 08:58 ENE 7 5 Thunderstorms and Light Rain and Fog/Mist SCT008 BKN022 OVC095 58 58     100%     29.52   0    
Apr 26 08:53 ENE 6 5 Rain and Fog/Mist BKN006 BKN022 OVC037 58 58     100%     29.53 29.5 0    
Apr 26 08:30 E 6 6 Thunderstorms and Rain and Fog/Mist BKN006 BKN029 OVC035 58 58     100%     29.52   0    
Apr 26 08:21 NE 5 5 Thunderstorms and Rain and Fog/Mist SCT006 BKN031 OVC070 59 59     100%     29.52   0    
Apr 26 08:13 E 5 3 Thunderstorms and Light Rain and Fog/Mist BKN031 BKN041 OVC100 59 59     100%     29.53   0    
Apr 26 07:53 3 6 Light Rain and Fog/Mist SCT009 OVC041 59 59     100%     29.5 29.47 0    
Apr 26 07:28 SSE 7 10 Thunderstorms and Rain FEW009 BKN013 OVC050 60 60     100%     29.52   0    
Apr 26 07:12 E 8 3 Thunderstorms and Rain and Fog/Mist BKN013 OVC035 59 59     100%     29.49   0    
Apr 26 07:09 E 8 2 Thunderstorms and Heavy Rain and Fog/Mist SCT009 BKN015 OVC035 59 59     100%     29.49   0    
Apr 26 06:53 NNW 6 0.75 Thunderstorms and Heavy Rain and Fog/Mist FEW005 OVC017 59 59     100%     29.49 29.46 1   2
Apr 26 06:32   0.75 Thunderstorms and Heavy Rain and Fog/Mist BKN019 OVC032 59 59     100%     29.47   0    
Apr 26 06:27 N 7 1.75 Thunderstorms and Heavy Rain and Fog/Mist SCT019 SCT024 OVC034 59 59     100%     29.47   0    
Apr 26 06:05 NE 7 9 Thunderstorms and Light Rain OVC036 60 60     100%     29.47   0    
Apr 26 05:53 N 5 10 Cloudy BKN038 BKN048 OVC055 59 59     100%     29.48 29.44 0    
Apr 26 05:49 NE 5 10 Cloudy BKN040 BKN048 OVC070 59 59     100%     29.47   0    
Apr 26 04:53 3 5 Thunderstorms and Rain and Fog/Mist FEW036 SCT080 OVC100 59 59     100%     29.51 29.47 0    
Apr 26 04:43 Calm 10 Thunderstorms and Rain OVC100 59 59     100%     29.49   0    
Apr 26 03:53 Calm 10 Light Rain FEW015 BKN100 OVC110 59 59     100%     29.48 29.45 0 1  
Apr 26 03:38 5 10 Light Rain FEW019 OVC100 59 59     100%     29.5   0    
Apr 26 03:21 SSE 7 10 Thunderstorms and Rain FEW023 BKN100 OVC110 59 59     100%     29.53   0    
Apr 26 03:01 ESE 9 9 Light Rain OVC090 58 58     100%     29.51   0    
Apr 26 02:53 3 8 Thunderstorms and Rain OVC090 58 58     100%     29.5 29.47 0    
Apr 26 02:13 S 5 7 Thunderstorms and Rain BKN040 BKN070 OVC110 58 58     100%     29.54   0    
Apr 26 02:06 S 6 2.5 Thunderstorms and Rain and Fog/Mist BKN038 BKN070 OVC095 57 57     100%     29.54   0    
Apr 26 01:53 SW 16 1.25 Thunderstorms and Heavy Rain and Fog/Mist FEW028 BKN033 OVC050 58 57     97%     29.58   0    
Apr 26 01:51 SW 10 1.25 Thunderstorms and Heavy Rain and Fog/Mist FEW028 BKN033 OVC050 57 57     100%     29.57   0    
Apr 26 01:38 W 13 1.75 Thunderstorms and Heavy Rain and Fog/Mist BKN029 BKN033 OVC049 59 57     93%     29.61   0    
Apr 26 01:32   7 Thunderstorms and Rain BKN027 BKN034 OVC041 59 56     90%     29.61   0    
Apr 26 01:23   9 Light Rain FEW024 BKN029 OVC043 60 56     86%     29.57   0    
Apr 26 00:53 S 10 10 Mostly Cloudy BKN036 BKN045 70 64     81%     29.5 29.45      
Apr 25 23:53 SSE 8 10 Mostly Cloudy BKN033 70 64     81%     29.45 29.41      
Apr 25 22:53 SSE 9 10 Clear CLR 69 63     81%     29.48 29.44      
Apr 25 21:53 SSE 8 10 Mostly Clear FEW055 71 63     76%   71 29.47 29.44      
Apr 25 20:53 S 7 10 Mostly Cloudy BKN046 70 62     76%     29.47 29.43      
Apr 25 19:53 S 8 10 Clear CLR 71 63     76%   71 29.47 29.43      
Apr 25 18:53 SSW 11 10 Clear CLR 74 63     69%   74 29.47 29.44     0
Apr 25 17:53 S 16 10 Clear   77 62     60%   77 29.46 29.43      
Apr 25 16:53 S 17 10 Clear CLR 77 63     62%   77 29.46 29.42      
Apr 25 15:53 S 23 10 Mostly Clear and Windy FEW044 77 62     60%   77 29.46 29.43   0  
Apr 25 14:53 S 22 10 Clear and Windy CLR 79 62     56%   79 29.47 29.43 0    
Apr 25 13:53 S 23 10 Light Rain CLR 77 59     54%   77 29.47 29.44 0    
Apr 25 12:53 S 20 10 Light Rain CLR 76 59     56%   76 29.5 29.47 0   0
Apr 25 11:53 S 21 10 Light Rain CLR 73 57     57%   73 29.51 29.48 0    
Apr 25 09:53 S 21 10 Clear and Windy CLR 68 53     59%     29.53 29.5      
Apr 25 08:53 S 14 10 Clear CLR 65 51     61%     29.56 29.54      
Apr 25 07:53 S 9 10 Clear CLR 62 49     62%     29.57 29.54      
Apr 25 06:53 3 10 Clear CLR 59 46     62%     29.57 29.54      
Apr 25 05:53 SE 3 10 Clear CLR 57 45     64%     29.59 29.56      
Apr 25 04:53 Calm 10 Clear CLR 58 44     60%     29.6 29.57      
Apr 25 03:53 SE 6 10 Clear CLR 57 44     62%     29.62 29.59      
Apr 25 02:53 S 5 10 Clear CLR 57 44     62%     29.64 29.61      
Apr 25 01:53 Calm 10 Clear CLR 51 45     79%     29.66 29.63      
Notice The following observation data may not be complete
Apr 25 00:53 Calm 10 Clear CLR   45      %     29.68 29.65      
Apr 24 23:53 Calm 10 Clear CLR 57 43     59%     29.69 29.66      
Apr 24 22:53 3 10 Clear CLR 61 41     48%     29.7 29.67      
Apr 24 21:53 SSE 5 10 Clear CLR 63 41     45%     29.68 29.65      
Notice The following observation data may not be complete
Apr 24 20:53 Calm 10 Clear CLR   46      %     29.68 29.67      
Apr 24 19:53 SE 6 10 Clear CLR 67 42     40%     29.66 29.65      
Apr 24 18:53 SSE 9 10 Clear CLR 71 42     35%   70 29.69 29.68      
Apr 24 17:53 SSE 15 10 Clear CLR 72 41     33%   70 29.7 29.69      
Apr 24 16:53 SE 15 10 Clear CLR 73 40     30%   71 29.71 29.7      
Apr 24 15:53 S 15 10 Clear CLR 74 39     28%   72 29.76 29.74      
Apr 24 14:53 S 16 10 Clear CLR 73 36     26%   71 29.8 29.78      
Apr 24 13:53 SSW 17 10 Clear CLR 73 34     24%   71 29.83 29.82      
Apr 24 12:53 S 11 10 Clear CLR 71 35     27%   69 29.88 29.86      
Apr 24 11:53 S 14 10 Clear CLR 69 38     32%     29.94 29.92      
Apr 24 10:53 SSW 11 10 Clear CLR 67 37     33%     29.96 29.94      
Apr 24 09:53 E 3 10 Clear CLR 59 47     64%     29.98 29.97      
Apr 24 08:53 Calm 10 Clear CLR 48 44     86%     30 29.99      
Apr 24 07:53 Calm 10 Clear CLR 40 40     100%     30 29.99      
Apr 24 06:53 Calm 10 Clear CLR 35 35     100%     30 29.99      
Apr 24 05:53 S 3 10 Clear CLR 36 36     100% 33   29.99 29.98      
Apr 24 04:53 Calm 10 Clear CLR 37 37     100%     29.99 29.98      
Apr 24 03:53 Calm 10 Clear CLR 38 38     100%     29.97 29.96      
Apr 24 02:53 Calm 10 Clear CLR 40 40     100%     29.97 29.96      
Apr 24 01:53 Calm 10 Clear CLR 40 40     100%     29.99 29.98      
Apr 24 00:53 S 3 10 Clear CLR 40 40     100% 38   30 29.99      
Apr 23 23:53 Calm 10 Clear CLR 42 42     100%     29.98 29.97      
Notice The following observation data may not be complete
Apr 23 22:53 Calm 10 Clear CLR   44      %     29.98 29.98      
Apr 23 21:53 Calm 10 Clear CLR 48 47     96%     30.01 30.01      
Apr 23 20:53 Calm 10 Clear CLR 51 45     79%     30.03 30.02      
Apr 23 19:53 N 3 10 Clear CLR 61 39     44%     30.03 30.02      
Apr 23 18:53 NNE 6 10 Clear CLR 66 38     36%     30.04 30.03      
Apr 23 17:53 NNE 6 10 Clear CLR 67 37     33%     30.04 30.03      
Apr 23 16:53 N 10 10 Clear CLR 67 39     36%     30.04 30.03      
Apr 23 15:53 NNW 5 10 Clear CLR 67 37     33%     30.05 30.04      
Apr 23 14:53 NNE 8 10 Clear CLR 66 38     36%     30.07 30.06      
Apr 23 13:53 NNE 7 10 Clear CLR 64 38     38%     30.08 30.07      
Apr 23 12:53 NNW 10 10 Clear CLR 62 38     41%     30.09 30.09      
Apr 23 11:53 N 9 10 Clear CLR 59 35     41%     30.12 30.11      
Apr 23 10:53 ENE 9 10 Clear CLR 57 37     47%     30.13 30.13      
Apr 23 09:53 NNE 8 10 Clear CLR 54 40     59%     30.13 30.12      
Apr 23 08:53 NNE 7 10 Clear CLR 51 42     71%     30.12 30.11      
Apr 23 07:53 Calm 10 Clear CLR 46 44     93%     30.12 30.11      
Apr 23 06:53 N 3 10 Clear CLR 41 41     100% 39   30.11 30.11      
Apr 23 05:53 N 3 10 Clear CLR 40 40     100% 38   30.09 30.1      
Apr 23 04:53 NNE 3 10 Clear CLR 43 42     97% 41   30.08 30.09      
Apr 23 03:53 N 5 10 Clear CLR 43 42     97% 40   30.08 30.08      
Apr 23 02:53 3 10 Partly Cloudy FEW075 SCT110 44 43     96% 43   30.08 30.08      
Apr 23 01:53 NNW 5 10 Cloudy FEW070 OVC110 45 44     97% 43   30.09 30.09      
Apr 23 00:53 NNW 3 10 Cloudy FEW065 OVC110 46 46     100% 45   30.1 30.1     0
Apr 22 23:53 3 10 Cloudy FEW070 OVC100 47 45     93% 46   30.1 30.1      
Apr 22 22:53 Calm 10 Cloudy OVC048 47 46     97%     30.1 30.1      
Apr 22 21:53 Calm 10 Cloudy OVC040 47 45     93%     30.11 30.11   0  
Apr 22 21:02 N 5 10 Cloudy FEW024 OVC034 47 45     93% 45   30.09        
Apr 22 20:53 N 5 10 Cloudy FEW021 BKN029 OVC034 47 46     97% 45   30.09 30.09      
Apr 22 19:53 N 6 10 Cloudy SCT017 OVC024 47 46     97% 44   30.08 30.08 0    
Apr 22 19:31 N 6 10 Light Rain FEW012 BKN016 OVC022 47 46     97% 44   30.07   0    
Apr 22 18:53 N 9 9 Cloudy BKN014 OVC021 46 45     96% 41   30.06 30.06 0   0
Apr 22 18:42 N 10 6 Fog/Mist BKN012 OVC019 46 46     100% 41   30.06   0    
Apr 22 18:30 NNW 11 6 Fog/Mist SCT010 OVC018 47 46     97% 42   30.06        
Apr 22 18:20 N 8 6 Fog/Mist BKN013 OVC022 47 46     97% 43   30.06        
Apr 22 18:11 N 9 5 Fog/Mist SCT010 OVC016 47 46     97% 43   30.06        
Apr 22 17:59 N 11 4 Fog/Mist BKN008 BKN014 OVC022 47 46     97% 42   30.06        
Apr 22 17:53 NNW 9 5 Fog/Mist SCT010 BKN016 OVC024 47 47     100% 43   30.06 30.05 0    
Apr 22 17:21 NNE 7 7 Cloudy SCT010 BKN016 OVC024 47 46     97% 44   30.05   0    
Apr 22 16:53 N 10 5 Light Rain and Fog/Mist BKN012 BKN018 OVC026 47 46     97% 42   30.04 30.04 0    
Apr 22 16:01 N 7 10 Cloudy FEW010 BKN016 OVC023 48 46     93% 45   30.03   0    
Apr 22 15:53 N 7 5 Light Rain and Fog/Mist FEW010 BKN014 OVC019 47 46     97% 44   30.03 30.03 0 0  
Apr 22 15:48 NNW 13 5 Light Rain and Fog/Mist SCT011 BKN014 OVC021 46 46     100% 41   30.03   0    
Apr 22 15:14 NNW 14 5 Fog/Mist BKN009 BKN015 OVC020 47 46     97% 41   30.03   0    
Apr 22 15:10 NNW 8 7 Cloudy BKN011 OVC018 47 46     97% 43   30.03   0    
Apr 22 14:53 N 13 4 Light Rain and Fog/Mist BKN009 OVC014 46 46     100% 40   30.03 30.03 0    
Apr 22 13:53 N 11 3 Fog/Mist OVC009 47 46     97% 42   30.03 30.03 0    
Apr 22 12:53 N 8 3 Light Rain and Fog/Mist OVC009 46 46     100% 42   30.02 30.02 0   0
Apr 22 11:53 N 5 3 Fog/Mist BKN009 OVC014 48 47     96% 46   30.01 30.01 0    
Apr 22 10:53 N 7 2 Light Rain and Fog/Mist OVC009 49 48     97% 46   30 30 0    
Apr 22 09:53 N 8 6 Fog/Mist OVC009 49 48     97% 45   29.98 29.97 0 0  
Apr 22 08:53 N 9 4 Light Rain and Fog/Mist BKN007 OVC011 49 49     100% 45   29.96 29.96 0    
Apr 22 07:53 NNE 6 5 Fog/Mist BKN009 BKN013 OVC018 48 48     100% 45   29.95 29.94 0    
Apr 22 07:08 N 7 2 Fog/Mist OVC006 48 48     100% 45   29.93   0    
Apr 22 06:53 N 9 1.25 Light Rain and Fog/Mist BKN006 OVC010 48 48     100% 44   29.93 29.92 0   0
Apr 22 05:53 NNW 9 3 Light Rain and Fog/Mist BKN007 OVC010 50 50     100% 46   29.9 29.89 0    
Apr 22 05:50 NNW 10 3 Light Rain and Fog/Mist BKN007 OVC010 50 50     100% 46   29.9   0    
Apr 22 05:18 NNW 10 2 Light Rain and Fog/Mist BKN005 OVC014 50 50     100% 46   29.89   0    
Apr 22 05:05 NNW 6 6 Fog/Mist BKN005 BKN009 OVC014 51 51     100%     29.89        
Apr 22 04:53 NNW 6 5 Fog/Mist SCT006 OVC013 51 51     100%     29.88 29.87 0    
Apr 22 04:48 NNW 5 6 Fog/Mist BKN006 OVC013 52 52     100%     29.88   0    
Apr 22 04:47 N 5 5 Light Rain and Fog/Mist SCT006 OVC011 52 52     100%     29.88   0    
Apr 22 04:41 N 5 2.5 Light Rain and Fog/Mist BKN006 BKN009 OVC012 51 51     100%     29.87   0    
Apr 22 04:19 NW 7 2.5 Light Rain and Fog/Mist SCT006 BKN010 OVC016 51 51     100%     29.88   0    
Apr 22 03:53 N 5 3 Light Rain and Fog/Mist BKN005 OVC009 51 51     100%     29.87 29.86 0 0  
Apr 22 03:43 NNW 3 2.5 Light Rain and Fog/Mist OVC005 51 51     100%     29.86   0    
Apr 22 02:53 NNW 5 10 Cloudy OVC006 51 51     100%     29.85 29.84 0    
Apr 22 02:06 ENE 3 3 Fog/Mist BKN005 OVC010 52 52     100%     29.86   0    
Apr 22 01:53 E 3 2.5 Light Rain and Fog/Mist OVC006 52 52     100%     29.86 29.85 0    
Apr 22 00:53 N 6 5 Light Rain and Fog/Mist OVC006 53 53     100%     29.86 29.85 0   1
Apr 21 23:53 3 10 Cloudy OVC007 54 54     100%     29.86 29.85      
Apr 21 23:06 ENE 6 10 Cloudy BKN009 OVC039 54 54     100%     29.86        
Apr 21 22:53 N 6 10 Cloudy SCT009 BKN039 OVC110 54 54     100%     29.87 29.86 0    
Apr 21 22:12 6 10 Light Rain FEW009 BKN044 OVC065 55 55     100%     29.86   0    
Apr 21 21:53 Calm 5 Light Rain and Fog/Mist FEW021 BKN031 BKN041 55 55     100%     29.84 29.83 0 1  
Apr 21 21:46 NE 7 3 Thunderstorms and Light Rain and Fog/Mist FEW021 BKN031 BKN041 55 55     100%     29.84   0    
Apr 21 21:37 NNE 11 1.75 Thunderstorms and Heavy Rain and Fog/Mist FEW021 BKN031 BKN041 54 54     100%     29.83   0    
Apr 21 21:31 N 11 4 Thunderstorms and Heavy Rain and Fog/Mist FEW021 BKN031 BKN041 55 55     100%     29.86   0    
Apr 21 20:56 E 7 10 Mostly Cloudy FEW021 BKN031 BKN041 56 56     100%     29.8        
Apr 21 20:53 E 6 10 Cloudy BKN026 BKN046 OVC100 56 56     100%     29.8 29.79 0    
Apr 21 20:24 N 6 5 Light Rain and Fog/Mist BKN026 BKN046 OVC100 56 56     100%     29.83   0    
Apr 21 20:00 E 14 10 Light Rain BKN026 BKN046 OVC100 57 55     93%     29.8   0    
Apr 21 19:53 ESE 16 10 Light Rain FEW026 BKN046 OVC080 56 55     97%     29.78 29.77 0    
Apr 21 19:22 5 4 Light Rain and Fog/Mist FEW009 OVC046 56 56     100%     29.83   0    
Apr 21 19:09 7 2.5 Thunderstorms and Heavy Rain and Fog/Mist FEW009 SCT024 OVC046 56 56     100%     29.82   0    
Apr 21 18:53 E 13 8 Thunderstorms and Rain OVC046 57 56     96%     29.79 29.77 0   1
Apr 21 18:02 E 10 10 Thunderstorms and Rain BKN050 BKN070 OVC100 57 57     100%     29.82   0    
Apr 21 17:53 ENE 10 7 Rain BKN055 BKN075 OVC100 58 57     97%     29.82 29.8 0    
Apr 21 17:40 6 5 Light Rain and Fog/Mist BKN065 BKN080 OVC100 58 57     97%     29.81   0    
Apr 21 17:28 E 5 4 Thunderstorms and Rain and Fog/Mist OVC060 58 57     97%     29.84   0    
Apr 21 17:13 3 2.5 Thunderstorms and Light Rain and Fog/Mist BKN060 OVC100 59 56     90%     29.85   0    
Apr 21 16:53 Calm 10 Cloudy BKN065 BKN080 OVC110 59 57     93%     29.83 29.81      
Apr 21 16:50 S 3 10 Thunderstorms BKN065 57 55     94%     29.83        
Apr 21 16:32 ESE 7 10 Cloudy SCT011 OVC065 58 55     90%     29.84        
Apr 21 16:00 E 6 10 Cloudy OVC011 57 56     96%     29.83        
Apr 21 15:53 ENE 9 10 Cloudy OVC008 56 55     97%     29.83 29.81 0 1  
Apr 21 14:53 ENE 7 10 Light Rain OVC008 54 54     100%     29.87 29.85 0    
Apr 21 14:17 ENE 17 4 Rain and Fog/Mist SCT049 SCT070 OVC090 54 54     100%     29.87   0    
Apr 21 14:05 E 8 3 Heavy Rain and Fog/Mist BKN049 OVC070 54 54     100%     29.98   0    
Apr 21 13:53 ENE 3 3 Thunderstorms and Heavy Rain and Fog/Mist FEW007 FEW021 OVC041 54 54     100%     30.01 30 0    
Apr 21 13:10 NW 8 3 Thunderstorms and Rain and Fog/Mist FEW007 OVC033 55 55     100%     30   0    
Apr 21 12:53 Calm 7 Light Rain FEW008 BKN036 OVC049 55 55     100%     29.96 29.95 0   1
Apr 21 12:40 Calm 3 Thunderstorms and Rain and Fog/Mist FEW008 BKN038 OVC055 55 55     100%     29.95   0    
Apr 21 12:28 NNE 5 3 Light Rain and Fog/Mist SCT008 BKN038 OVC060 54 54     100%     29.94   0    
Apr 21 12:01 N 9 2.5 Thunderstorms and Heavy Rain and Fog/Mist OVC009 54 54     100%     29.92   0    
Apr 21 11:53 N 3 10 Cloudy OVC009 55 55     100%     29.9 29.88 0    
Apr 21 11:32 NNE 6 10 Light Rain BKN008 OVC046 55 55     100%     29.9   0    
Apr 21 10:53 5 6 Light Rain and Fog/Mist BKN050 OVC060 55 55     100%     29.91 29.89 0    
Apr 21 10:02 ESE 11 5 Heavy Rain and Fog/Mist FEW060 BKN075 BKN090 56 54     93%     29.93   0    
Apr 21 09:53 6 10 Cloudy BKN075 OVC110 56 54     93%     29.93 29.91   0  
Apr 21 08:53 E 11 10 Cloudy OVC080 54 53     97%     29.94 29.93 0    
Apr 21 08:01 E 15 8 Light Rain FEW042 OVC100 52 52     100%     29.96   0    
Apr 21 07:53 ENE 18 10 Light Rain FEW075 OVC100 52 52     100%     29.96 29.94 0    
Apr 21 07:43 E 15 6 Thunderstorms and Rain and Fog/Mist FEW007 SCT080 OVC100 52 52     100%     29.99   0    
Apr 21 07:22 ENE 9 4 Thunderstorms and Light Rain and Fog/Mist FEW007 BKN040 OVC095 52 52     100%     30.06   0    
Apr 21 07:14 E 14 3 Thunderstorms and Heavy Rain and Fog/Mist OVC040 52 52     100%     30.07   0    
Apr 21 06:59 ENE 13 1.75 Thunderstorms and Heavy Rain and Fog/Mist FEW008 BKN031 OVC042 52 51     97%     30.06   0    
Apr 21 06:53 NNE 10 2.5 Thunderstorms and Heavy Rain and Fog/Mist SCT012 BKN034 OVC043 52 51     97%     30.08   0   0
Apr 21 06:33 N 11 5 Thunderstorms and Light Rain and Fog/Mist BKN011 OVC027 53 53     100%     30.04   0    
Apr 21 06:22 N 15 4 Heavy Rain and Fog/Mist BKN013 OVC027 53 53     100%     30.03   0    
Apr 21 05:53 ENE 14 5 Rain and Fog/Mist FEW013 BKN022 OVC029 54 53     97%     29.99 29.97 0    
Apr 21 05:41 E 16 6 Light Rain and Fog/Mist FEW012 BKN019 OVC025 54 53     97%     29.98   0    
Apr 21 05:34 E 14 2.5 Heavy Rain and Fog/Mist OVC019 54 53     97%     29.99   0    
Apr 21 05:10 NE 13 10 Cloudy OVC016 56 53     90%     29.98        
Apr 21 04:53 NE 10 10 Cloudy OVC012 57 55     93%     29.99 29.96      
Apr 21 04:09 NNW 6 10 Cloudy BKN009 OVC023 62 61     96%     29.97        
Apr 21 03:53 NNE 3 10 Cloudy FEW009 BKN023 OVC035 62 62     100%     29.96 29.93   0  
Apr 21 02:53 ENE 5 10 Cloudy BKN024 OVC035 62 61     96%     29.96 29.93      
Apr 21 01:53 E 5 10 Cloudy OVC024 63 61     93%     29.98 29.95 0    
Apr 21 01:22 ENE 6 10 Cloudy BKN026 OVC090 63 61     93%     30        
Apr 21 00:53 ENE 6 10 Mostly Cloudy FEW030 SCT050 BKN090 62 61     96%     30 29.97 0   0
Apr 20 23:53 Calm 10 Cloudy SCT040 BKN050 OVC085 62 62     100%     30.03 29.99      
Apr 20 22:53 Calm 10 Mostly Cloudy BKN046 62 62     100%     30.04 30.01      
Apr 20 21:53 Calm 10 Cloudy BKN049 OVC090 62 62     100%     30.04 30.01      
Apr 20 20:53 Calm 10 Cloudy BKN021 OVC041 63 62     97%     30.03 30      
Apr 20 19:53 E 3 10 Cloudy BKN019 OVC065 63 62     97%     30.02 29.99      
Apr 20 18:53 ENE 3 10 Cloudy OVC018 64 62     93%     30.02 30     0
Apr 20 17:53 Calm 10 Cloudy FEW008 FEW013 OVC020 64 62     93%     30.03 30.01      
Apr 20 16:53 NW 6 10 Cloudy SCT008 OVC016 63 63     100%     30.03 30 0    
Apr 20 15:53 NNW 6 10 Cloudy BKN006 BKN016 OVC030 64 64     100%     30.03 30 0 0  
Apr 19 15:53 S 17 10 Mostly Clear FEW047 FEW060 78 61     56%   78 30.02 29.98      
Apr 19 14:53 S 21 10 Mostly Cloudy and Windy SCT046 BKN060 77 62     60%   77 30.04 30.01      
Apr 19 13:53 S 13 10 Mostly Cloudy FEW041 BKN050 BKN060 75 62     64%   75 30.07 30.04      
Apr 19 12:53 S 18 10 Partly Cloudy FEW038 SCT049 76 62     62%   76 30.09 30.06      
Apr 19 11:53 S 11 10 Cloudy BKN031 OVC037 72 62     71%   72 30.11 30.08      
Apr 19 11:51 S 11 10 Cloudy BKN029 OVC037 72 63     73%   72 30.11        
Apr 19 11:44 SSW 10 10 Mostly Cloudy SCT029 BKN037 71 62     73%   71 30.11        
Apr 19 11:32 SSW 14 10 Mostly Cloudy BKN029 72 62     71%   72 30.11        
Apr 19 10:53 S 13 10 Mostly Clear FEW028 73 63     71%   73 30.1 30.06      
Apr 19 09:53 S 14 10 Clear CLR 69 62     78%     30.09 30.06      
Apr 19 08:53 S 10 10 Clear CLR 67 63     87%     30.08 30.06      
Apr 19 07:53 SSW 5 10 Clear CLR 63 63     100%     30.08 30.05      
Apr 19 06:59 Calm 10 Clear CLR 55 55     100%     30.07        
Apr 19 06:53 Calm 0.5 Fog VV010 55 55     100%     30.07 30.04      
Apr 19 06:45 Calm 0.75 Fog/Mist VV009 55 55     100%     30.06        
Notice The following observation data may not be complete
Apr 19 06:41 Calm 1.25 Fog/Mist SCT009   54      %     30.06        
Apr 19 06:00 Calm 0.25 Fog VV006 57 57     100%     30.06        
Notice The following observation data may not be complete
Apr 19 05:53 Calm 1 Fog/Mist VV007   56      %     30.06 30.03      
Apr 19 05:51 Calm 1.5 Fog/Mist CLR 57 57     100%     30.06        
Apr 19 05:28 Calm 4 Fog/Mist FEW008 57 57     100%     30.06        
Notice The following observation data may not be complete
Apr 19 04:53 NNW 5 3 Fog/Mist CLR   55      %     30.05 30.02      
Notice The following observation data may not be complete
Apr 19 04:44 Calm 1 Fog/Mist VV007   56      %     30.05        
Notice The following observation data may not be complete
Apr 19 04:42 Calm 1.5 Fog/Mist CLR   56      %     30.05        
Notice The following observation data may not be complete
Apr 19 03:53 Calm 8 Clear CLR   57      %     30.04 30      
Apr 19 02:53 SSE 3 8 Clear CLR 58 58     100%     30.04 30      
Notice The following observation data may not be complete
Apr 19 01:53 Calm 10 Clear CLR   58      %     30.05 30.02      
Apr 19 00:53 Calm 10 Clear CLR 59 59     100%     30.06 30.02      
Apr 18 23:53 S 5 10 Clear CLR 60 60     100%     30.06 30.03      
Notice The following observation data may not be complete
Apr 18 22:53 S 5 10 Clear CLR   59      %     30.07 30.04      
Apr 18 21:53 S 3 10 Clear CLR 61 60     97%     30.06 30.04      
Apr 18 20:53 Calm 10 Clear CLR 64 61     90%     30.05 30.02      
Apr 18 19:53 Calm 10 Clear CLR 70 60     71%     30.03 30.01      
Apr 18 18:53 SW 7 10 Clear CLR 75 59     57%   75 30.02 30      
Apr 18 17:53 SSW 8 10 Clear CLR 77 59     54%   77 30.02 29.99      
Apr 18 16:53 W 7 10 Clear CLR 78 57     48%   78 30.02 29.99      
Apr 18 15:53 WNW 10 10 Clear CLR 78 58     50%   78 30.04 30.01      
Apr 18 14:53 SW 9 10 Mostly Clear FEW049 76 59     56%   76 30.06 30.03      
Apr 18 13:53 SE 6 10 Partly Cloudy SCT046 77 61     58%   77 30.06 30.03      
Apr 18 12:53 W 5 10 Clear CLR 75 58     55%   75 30.07 30.04      
Apr 18 11:53 SSE 6 10 Clear CLR 73 60     64%   73 30.08 30.05      
Apr 18 10:53 6 10 Clear CLR 70 61     73%     30.08 30.05      
Apr 18 09:53 S 7 10 Clear CLR 67 60     79%     30.08 30.05      
Apr 18 08:53 Calm 10 Clear CLR 59 59     100%     30.08 30.06      
Apr 18 08:28 Calm 10 Partly Cloudy SCT001 56 56     100%     30.08        
Apr 18 08:09 Calm 5 Fog/Mist OVC002 55 55     100%     30.08        
Apr 18 08:01 Calm 2 Fog/Mist OVC002 54 54     100%     30.08        
Apr 18 07:53 Calm 0.5 Fog VV002 54 53     97%     30.08 30.06      
Apr 18 06:53 S 5 0.25 Fog VV002 52 52     100%     30.08 30.06      
Apr 18 05:53 Calm 0.25 Fog VV002 53 53     100%     30.08 30.06      
Apr 18 04:53 Calm 0.25 Fog VV002 55 55     100%     30.07 30.05      
Apr 18 03:53 Calm 0.25 Fog VV002 54 54     100%     30.06 30.04      
Apr 18 02:53 Calm 0.25 Fog VV002 56 56     100%     30.05 30.03      
Apr 18 02:37 Calm 0.75 Fog/Mist VV001 55 55     100%     30.05        
Apr 18 02:31 Calm 1.75 Fog/Mist SCT001 56 56     100%     30.06        
Apr 18 02:15 E 3 4 Fog/Mist FEW003 57 57     100%     30.06        
Apr 18 02:00 Calm 1.25 Fog/Mist FEW004 FEW033 56 56     100%     30.06        
Apr 18 01:53 ENE 3 2 Fog/Mist FEW033 56 56     100%     30.07 30.05      
Apr 18 00:53 Calm 10 Mostly Clear FEW026 58 58     100%     30.07 30.05      
Apr 18 00:51 NW 3 10 Partly Cloudy SCT026 57 57     100%     30.07        
Apr 17 23:53 Calm 10 Clear   61 61     100%     30.07 30.05      
Apr 17 23:30 Calm 10 Mostly Cloudy BKN025 60 60     100%     30.07        
Apr 17 22:53 3 10 Mostly Clear FEW070 61 60     97%     30.07 30.05      
Apr 17 21:53 Calm 10 Partly Cloudy FEW032 SCT050 SCT065 60 60     100%     30.07 30.05      
Apr 17 20:53 Calm 10 Clear CLR 62 61     96%     30.04 30.02      
Apr 17 19:53 NNE 3 10 Partly Cloudy SCT060 65 61     87%     30.02 30      
Apr 17 18:53 Calm 10 Partly Cloudy SCT030 68 61     78%     30.03 30.01     0
Apr 17 17:53 5 10 Partly Cloudy SCT024 69 61     75%     30.02 30      
Apr 17 17:32 ENE 5 10 Partly Cloudy SCT023 69 61     75%     30.02        
Apr 17 16:53 3 10 Mostly Cloudy BKN022 69 62     78%     30.02 29.99      
Apr 17 15:53 NNW 5 10 Cloudy BKN038 OVC047 67 62     84%     30.04 30.01   0  
Apr 17 14:53 Calm 10 Cloudy FEW040 OVC047 67 59     76%     30.06 30.04      
Apr 17 13:53 Calm 10 Cloudy FEW011 SCT019 OVC046 65 62     90%     30.09 30.07 0    
Apr 17 12:56 SSW 7 5 Fog/Mist BKN008 BKN011 OVC035 62 62     100%     30.1   0    
Apr 17 12:53 SW 8 5 Light Rain and Fog/Mist BKN011 BKN017 OVC035 62 62     100%     30.1 30.08 0   0
Apr 17 12:49 SSW 7 3 Light Rain and Fog/Mist BKN010 OVC017 63 63     100%     30.11   0    
Apr 17 12:40 SW 8 1.25 Rain and Fog/Mist OVC010 61 61     100%     30.11   0    
Apr 17 12:26 WSW 8 2 Light Rain and Fog/Mist OVC008 61 61     100%     30.12   0    
Apr 17 11:53 Calm 9 Cloudy OVC008 62 62     100%     30.12 30.1 0    
Apr 17 10:53 Calm 10 Cloudy OVC008 62 60     93%     30.12 30.09      
Apr 17 09:53 Calm 10 Cloudy OVC007 61 60     97%     30.1 30.08      
Apr 17 08:53 SSE 3 10 Cloudy BKN009 OVC014 59 59     100%     30.1 30.07      
Apr 17 07:53 ENE 3 10 Cloudy OVC012 58 58     100%     30.08 30.05      
Apr 17 07:33 E 6 10 Cloudy SCT006 OVC013 58 58     100%     30.06        
Apr 17 07:12 Calm 10 Mostly Cloudy BKN006 57 57     100%     30.06        
Apr 17 06:53 Calm 10 Mostly Clear FEW006 57 57     100%     30.04 30.02     0
Apr 17 05:53 NE 5 10 Clear CLR 57 57     100%     30.03 30 0    
Apr 17 04:53 S 7 10 Light Rain BKN100 OVC110 57 57     100%     30.09 30.06 0    
Apr 17 03:53 NW 5 9 Clear   57 57     100%     30.09 30.06 0 0  
Apr 17 02:53 SE 3 10 Light Rain OVC090 57 57     100%     30.04 30.02 0    
Apr 17 02:33 Calm 7 Light Rain OVC100 57 57     100%     30.06   0    
Apr 17 02:16 SSW 3 8 Thunderstorms and Rain OVC100 56 56     100%     30.09   0    
Apr 17 01:53 SE 6 10 Light Rain FEW065 SCT075 OVC110 57 57     100%     30.08 30.06 0    
Apr 17 01:27 SSW 6 3 Thunderstorms and Heavy Rain and Fog/Mist BKN055 OVC070 56 56     100%     30.1   0    
Apr 17 01:05 5 2.5 Thunderstorms and Heavy Rain and Fog/Mist FEW017 BKN050 OVC060 57 57     100%     30.11   0    
Apr 17 00:53   10 Light Rain FEW017 BKN040 OVC055 58 57     97%     30.11 30.09 0   0
Apr 17 00:46   10 Light Rain SCT017 BKN025 OVC060 60 58     93%     30.1   0    
Apr 16 23:53 S 5 4 Light Rain and Fog/Mist FEW050 OVC110 63 63     100%     30.06 30.03 0    
Apr 16 23:34 Calm 5 Light Rain and Fog/Mist FEW043 SCT050 OVC100 63 63     100%     30.06   0    
Apr 16 23:07 Calm 7 Thunderstorms and Rain OVC085 64 64     100%     30.06   0    
Apr 16 22:53 Calm 7 Mostly Cloudy BKN085 63 63     100%     30.06 30.03      
Apr 16 21:53 Calm 9 Partly Cloudy SCT100 63 63     100%     30.05 30.03      
Apr 16 20:53 Calm 10 Cloudy OVC090 67 65     93%     30.05 30.02      
Apr 16 19:53 Calm 10 Cloudy SCT034 BKN042 OVC070 69 66     90%     30.05 30.02      
Apr 16 18:53 Calm 10 Cloudy FEW037 SCT044 OVC070 72 63     73%   72 30.06 30.03      
Apr 16 17:53 SW 7 10 Cloudy OVC065 73 63     71%   73 30.05 30.02      
Apr 16 16:53 SW 8 10 Partly Cloudy SCT036 74 63     69%   74 30.04 30      
Apr 16 15:53 S 10 10 Mostly Clear FEW033 74 62     66%   74 30.04 30.01      
Apr 16 14:53 S 13 10 Clear CLR 72 63     73%   72 30.06 30.03      
Apr 16 13:53 SSW 13 10 Clear CLR 69 61     75%     30.05 30.02      
Apr 16 12:53 SSW 5 10 Clear CLR 65 61     87%     30.06 30.04     0
Apr 16 11:53 S 15 10 Mostly Cloudy FEW050 SCT090 BKN110 61 60     97%     30.06 30.03 0    
Apr 09 00:53 S 11 10 Clear CLR 64 50     60%     29.82 29.78      
Apr 08 23:53 S 16 10 Clear CLR 66 50     56%     29.81 29.78      
Apr 08 22:53 SSW 8 10 Clear CLR 66 51     59%     29.83 29.8      
Apr 08 21:53 S 13 10 Clear CLR 67 51     57%     29.84 29.81      
Apr 08 20:53 S 13 10 Clear CLR 68 53     59%     29.83 29.8      
Apr 08 19:53 S 16 10 Clear CLR 70 54     57%     29.81 29.79      
Apr 08 18:53 S 17 10 Clear CLR 72 54     53%   71 29.8 29.78      
Apr 08 17:53 S 20 10 Clear and Windy CLR 75 54     48%   74 29.81 29.78      
Apr 08 16:53 S 22 10 Clear and Windy CLR 77 53     43%   76 29.81 29.79      
Apr 08 15:53 S 21 10 Clear and Windy CLR 77 49     37%   76 29.83 29.81      
Apr 08 14:53 S 24 10 Clear and Windy CLR 77 50     39%   76 29.86 29.83      
Apr 08 13:53 S 24 10 Clear and Windy CLR 75 51     43%   74 29.89 29.87      
Apr 08 12:53 S 23 10 Clear and Windy CLR 72 50     46%   71 29.92 29.9      
Apr 08 11:53 S 20 10 Clear and Windy CLR 71 49     45%   70 29.95 29.93      
Apr 08 10:53 S 21 10 Clear and Windy CLR 67 48     51%     29.96 29.95      
Apr 08 09:53 S 20 10 Clear and Windy CLR 65 47     52%     29.97 29.96      
Apr 08 08:53 S 13 10 Clear CLR 61 46     58%     29.98 29.97      
Apr 08 07:53 S 7 10 Clear CLR 55 44     66%     29.99 29.97      
Notice The following observation data may not be complete
Apr 08 06:53 Calm 10 Clear CLR   41      %     29.99 29.97      
Apr 08 05:53 Calm 10 Clear CLR 49 41     74%     29.98 29.97      
Notice The following observation data may not be complete
Apr 08 04:53 Calm 10 Clear CLR   40      %     29.99 29.98      
Notice The following observation data may not be complete
Apr 08 03:53 Calm 10 Clear CLR   40      %     29.99 29.98      
Notice The following observation data may not be complete
Apr 08 02:53 Calm 10 Clear CLR   39      %     30 29.99      
Apr 08 01:53 Calm 10 Clear CLR 47 40     76%     30.02 30.01      
Apr 08 00:53 Calm 10 Clear CLR 50 38     63%     30.04 30.03      
Notice The following observation data may not be complete
Apr 07 23:53 Calm 10 Clear CLR   42      %     30.06 30.05      
Notice The following observation data may not be complete
Apr 07 22:53 Calm 10 Clear CLR   41      %     30.06 30.06      
Notice The following observation data may not be complete
Apr 07 21:53 Calm 10 Clear CLR   42      %     30.06 30.06      
Notice The following observation data may not be complete
Apr 07 20:53 Calm 10 Clear CLR   42      %     30.07 30.07      
Apr 07 19:53 S 7 10 Clear CLR 58 38     47%     30.07 30.07      
Apr 07 18:53 S 9 10 Clear CLR 65 38     37%     30.07 30.07      
Apr 07 17:53 W 3 10 Clear CLR 68 35     30%     30.08 30.08      
Apr 07 16:53 NNW 5 10 Clear CLR 68 28     22%     30.09 30.09      
Apr 07 15:53 NNW 6 10 Clear CLR 69 31     24%     30.13 30.13      
Apr 07 14:53 Calm 10 Clear CLR 65 31     28%     30.17 30.16      
Apr 07 13:53 Calm 10 Clear CLR 63 32     31%     30.2 30.2      
Apr 07 12:53 5 10 Clear CLR 61 27     27%     30.24 30.24      
Apr 07 11:53 5 10 Clear CLR 58 28     32%     30.27 30.27      
Apr 07 10:53 5 10 Clear CLR 56 28     34%     30.28 30.28      
Apr 07 09:53 E 3 10 Clear CLR 53 34     48%     30.28 30.28      
Apr 07 08:53 SSE 3 10 Clear CLR 43 38     82% 41   30.27 30.27      
Apr 07 07:53 SSE 5 10 Clear CLR 34 34     100% 30   30.27 30.28      
Apr 07 06:53 SSW 7 10 Clear CLR 31 31     100% 24   30.26 30.27      
Apr 07 05:53 Calm 10 Clear CLR 31 31     100%     30.24 30.24      
Apr 07 04:53 Calm 10 Clear CLR 33 33     100%     30.23 30.23      
Notice The following observation data may not be complete
Apr 07 03:53 Calm 10 Clear CLR   32      %     30.24 30.24      
Apr 07 02:53 S 3 10 Clear CLR 35 33     92% 32   30.24 30.24      
Notice The following observation data may not be complete
Apr 07 01:53 Calm 10 Clear CLR   34      %     30.24 30.24      
Notice The following observation data may not be complete
Apr 07 00:53 Calm 10 Clear CLR   35      %     30.24 30.24      
Notice The following observation data may not be complete
Apr 06 23:53 S 3 10 Clear CLR   36      %     30.24 30.24      
Notice The following observation data may not be complete
Apr 06 22:53 S 5 10 Clear CLR   36      %     30.23 30.23      
Apr 06 21:53 Calm 10 Clear CLR 44 36     73%     30.22 30.22      
Apr 06 20:53 Calm 10 Clear CLR 49 33     54%     30.19 30.19      
Apr 06 19:53 NW 9 10 Clear CLR 53 33     46%     30.18 30.18      
Apr 06 18:53 NNW 13 10 Clear CLR 56 32     40%     30.17 30.18      
Apr 06 17:53 NW 17 10 Clear CLR 58 31     36%     30.17 30.18      
Apr 06 16:53 NW 11 10 Mostly Clear FEW065 60 34     37%     30.17 30.17      
Apr 06 15:53 NW 9 10 Partly Cloudy SCT065 60 35     39%     30.18 30.18      
Apr 06 14:53 NNW 16 10 Mostly Clear FEW060 61 38     42%     30.19 30.18      
Apr 06 13:53 WNW 13 10 Partly Cloudy SCT050 60 40     47%     30.19 30.19      
Apr 06 12:53 NW 18 10 Mostly Clear FEW055 59 37     44%     30.2 30.19      
Apr 06 11:53 WNW 16 10 Mostly Clear FEW049 57 38     49%     30.2 30.19      
Apr 06 10:53 WNW 15 10 Clear CLR 55 40     57%     30.2 30.19      
Apr 06 09:53 W 9 10 Clear CLR 52 40     63%     30.19 30.18      
Apr 06 08:53 NW 8 10 Clear CLR 48 39     71% 44   30.18 30.18      
Apr 06 07:53 S 5 10 Clear CLR 36 36     100% 32   30.16 30.16      
Apr 06 06:53 S 6 10 Clear CLR 34 34     100% 29   30.12 30.13      
Apr 06 05:53 S 7 10 Clear CLR 33 33     100% 27   30.08 30.09      
Apr 06 04:53 S 6 10 Clear CLR 34 34     100% 29   30.05 30.06      
Apr 06 03:53 S 3 10 Clear CLR 35 35     100% 32   30.04 30.05      
Apr 06 02:53 Calm 10 Clear CLR 36 35     96%     30.06 30.06      
Apr 06 01:53 N 3 10 Clear CLR 42 37     82% 40   30.07 30.07      
Apr 06 00:53 NNW 3 10 Clear CLR 41 37     86% 39   30.06 30.06      
Apr 05 23:53 NW 3 10 Mostly Cloudy BKN055 46 38     73% 45   30.03 30.03      
Apr 05 22:53 WNW 7 10 Mostly Clear FEW090 48 37     66% 45   30.01 30.01      
Apr 05 21:53 W 6 10 Clear CLR 50 39     66% 48   29.99 29.99      
Apr 05 20:53 W 6 10 Clear CLR 49 38     66% 46   29.97 29.97      
Apr 05 19:53 NW 8 10 Clear CLR 50 38     63% 47   29.95 29.94      
Apr 05 18:53 NW 15 10 Clear CLR 53 39     59%     29.93 29.93     0
Apr 05 17:53 NW 14 10 Mostly Cloudy FEW046 FEW060 BKN075 53 40     61%     29.91 29.91 0    
Apr 05 16:53 NW 30 10 Mostly Cloudy and Breezy SCT043 SCT065 BKN085 52 40     63%     29.89 29.89 0    
Apr 05 15:53 NW 25 10 Cloudy and Windy BKN047 OVC060 53 39     59%     29.85 29.84 0 0  
Apr 05 14:53 NW 18 10 Clear   52 46     80%     29.84 29.83 0    
Apr 05 13:53 WNW 14 10 Cloudy BKN020 BKN027 OVC035 47 43     86% 41   29.82 29.81 0    
Apr 05 12:53 WNW 17 10 Light Rain BKN020 OVC027 47 43     86% 40   29.79 29.78 0   0
Apr 05 11:53 WNW 17 7 Light Rain FEW013 BKN018 OVC023 46 44     93% 39   29.76 29.75 0    
Apr 05 10:53 WNW 16 5 Light Rain and Fog/Mist FEW010 BKN019 OVC026 47 46     97% 40   29.73 29.72 0    
Apr 05 10:00 WNW 11 4 Fog/Mist OVC011 47 46     97% 42   29.69   0    
Apr 05 09:53 W 15 2.5 Light Rain and Fog/Mist OVC009 47 46     97% 41   29.69 29.67 0 0  
Apr 05 09:30 WNW 16 2 Light Rain and Fog/Mist OVC008 47 46     97% 40   29.67   0    
Apr 05 08:53 W 17 7 Cloudy OVC008 48 48     100% 42   29.65 29.64 0    
Apr 05 08:51 W 13 5 Fog/Mist OVC008 48 48     100% 43   29.65   0    
Apr 05 08:32 WSW 10 2 Light Rain and Fog/Mist OVC008 47 47     100% 42   29.65   0    
Apr 05 08:07 SW 11 1.75 Light Rain and Fog/Mist OVC009 47 47     100% 42   29.65   0    
Apr 05 07:53 SW 10 9 Cloudy OVC009 47 46     97% 42   29.65 29.63      
Apr 05 07:50 SW 9 9 Cloudy OVC009 46 46     100% 42   29.65        
Apr 05 07:05 SSW 9 10 Cloudy OVC013 48 45     89% 44   29.64        
Apr 05 06:53 SW 9 10 Cloudy OVC015 48 45     89% 44   29.64 29.61      
Apr 05 05:53 SW 9 10 Cloudy BKN018 BKN024 OVC031 48 44     86% 44   29.64 29.61      
Apr 05 05:33 WSW 16 10 Clear   49 45     86% 43   29.63        
Apr 05 04:53 WSW 14 10 Clear   50 48     93% 45   29.61 29.58      
Apr 05 04:25 WSW 10 10 Cloudy BKN014 OVC019 52 50     93%     29.6        
Apr 05 04:14 SW 13 10 Cloudy OVC016 52 50     93%     29.6        
Apr 05 03:53 WSW 11 10 Cloudy OVC013 53 51     93%     29.6 29.57      
Apr 05 03:34 SW 7 10 Mostly Cloudy BKN013 54 52     93%     29.6        
Apr 05 02:53 WSW 9 10 Clear CLR 54 52     93%     29.61 29.58      
Apr 05 01:53 SSW 3 10 Clear CLR 52 51     97%     29.61 29.58      
Apr 05 00:53 S 7 10 Clear CLR 55 52     89%     29.61 29.59     0
Apr 04 23:53 SE 6 10 Cloudy SCT070 OVC100 58 52     81%     29.64 29.61 0    
Apr 04 22:53 SW 6 10 Light Rain SCT065 OVC085 61 52     72%     29.67 29.64 0    
Apr 04 21:53 WSW 9 10 Light Rain BKN090 OVC110 62 53     72%     29.65 29.62 0 0  
Apr 04 20:53 S 7 10 Cloudy BKN085 OVC110 57 55     93%     29.59 29.58 0    
Apr 04 20:39 SW 7 10 Thunderstorms FEW042 BKN090 OVC110 57 55     93%     29.58   0    
Apr 04 20:26 S 8 7 Thunderstorms and Rain FEW042 SCT055 OVC085 58 56     93%     29.59   0    
Apr 04 20:05 SW 17 2.5 Thunderstorms and Heavy Rain FEW042 BKN055 OVC090 63 56     78%     29.64   0    
Apr 04 19:53 SW 20 8 Thunderstorms and Rain FEW070 OVC090 70 55     59%     29.57 29.55 0    
Apr 04 19:43 SSE 11 10 Thunderstorms and Light Rain BKN090 74 51     45%   73 29.52   0    
Apr 04 19:28 SSE 16 10 Thunderstorms BKN090 75 50     41%   74 29.53        
Apr 04 18:53 SSE 20 10 Clear and Windy CLR 76 50     40%   75 29.51 29.49      
Apr 04 17:53 S 23 10 Clear and Windy CLR 77 49     37%   76 29.54 29.52      
Apr 04 16:53 SSE 16 10 Clear CLR 78 53     42%   78 29.56 29.54      
Apr 04 15:53 S 21 10 Clear and Windy CLR 77 54     45%   77 29.6 29.58      
Apr 04 14:53 SSE 14 10 Clear CLR 76 53     45%   75 29.64 29.62      
Apr 04 13:53 7 10 Clear CLR 72 56     57%   72 29.68 29.66      
Apr 04 12:53 ESE 9 6 Haze CLR 66 57     73%     29.72 29.71 0   0
Apr 04 12:21 SSE 7 6 Light Rain FEW035 BKN080 BKN100 63 57     81%     29.74   0    
Apr 04 12:06 ESE 14 6 Thunderstorms and Light Rain SCT048 BKN080 BKN095 62 55     78%     29.75   0    
Apr 04 11:58 S 6 6 Thunderstorms and Rain SCT028 BKN050 BKN080 62 55     78%     29.81   0    
Apr 04 11:51 S 3 2 Thunderstorms and Rain SCT034 SCT050 BKN075 64 52     65%     29.81 29.79 0    
Apr 04 11:50 S 3 2.5 Thunderstorms and Light Rain SCT034 SCT050 BKN075 64 52     64%     29.8   0    
Apr 04 11:44 S 5 10 Thunderstorms FEW031 SCT075 BKN090 65 52     63%     29.8        
Apr 04 10:53 NE 5 10 Mostly Clear FEW120 66 52     61%     29.78 29.77      
Apr 04 08:53 Calm 10 Clear CLR 50 50     100%     29.76 29.75      
Apr 04 07:53 Calm 8 Mostly Clear FEW120 45 45     100%     29.77 29.76      
Apr 04 06:53 Calm 9 Clear CLR 43 43     100%     29.77 29.75      
Apr 04 05:53 S 3 9 Clear CLR 44 44     100% 43   29.78 29.76      
Apr 04 04:53 S 3 9 Clear CLR 44 44     100% 43   29.75 29.74      
Apr 04 03:53 Calm 10 Clear CLR 45 45     100%     29.74 29.72      
Apr 04 02:53 SSW 3 9 Clear CLR 45 45     100% 44   29.74 29.72      
Notice The following observation data may not be complete
Apr 04 01:53 Calm 8 Clear CLR   45      %     29.75 29.73      
Apr 04 00:53 Calm 10 Clear CLR 47 47     100%     29.75 29.74      
Notice The following observation data may not be complete
Apr 03 23:53 Calm 10 Clear CLR   47      %     29.75 29.74      
Apr 03 22:53 SSW 7 10 Clear CLR 50 49     96% 47   29.73 29.72      
Notice The following observation data may not be complete
Apr 03 21:53 Calm 10 Clear CLR   51      %     29.72 29.7      
Apr 03 20:53 WSW 5 10 Clear CLR 58 50     75%     29.68 29.66      
Apr 03 19:53 W 7 10 Clear CLR 61 51     70%     29.67 29.65      
Apr 03 18:53 W 9 10 Clear CLR 65 51     61%     29.65 29.62      
Apr 03 17:53 SW 14 10 Partly Cloudy FEW044 SCT055 SCT070 67 53     61%     29.62 29.59      
Apr 03 16:53 W 9 10 Mostly Clear FEW037 67 55     66%     29.6 29.58      
Apr 03 15:53 WNW 15 10 Partly Cloudy FEW032 SCT050 SCT070 66 54     65%     29.59 29.57      
Apr 03 14:53 W 10 10 Clear   65 55     70%     29.59 29.57      
Apr 03 14:12 WSW 15 10 Cloudy SCT023 BKN049 OVC060 62 55     78%     29.59        
Apr 03 13:53 W 15 10 Mostly Cloudy FEW016 BKN022 BKN030 62 55     78%     29.59 29.56      
Apr 03 12:53 W 11 10 Mostly Cloudy FEW014 BKN019 BKN030 60 57     90%     29.58 29.56 0   0
Apr 03 12:13 W 8 3 Light Rain and Fog/Mist BKN013 OVC023 56 55     97%     29.58   0    
Apr 03 12:04 W 14 2.5 Light Rain and Fog/Mist FEW010 BKN014 OVC033 56 55     97%     29.58   0    
Apr 03 11:53 W 15 3 Light Rain and Fog/Mist SCT015 BKN023 OVC031 57 55     93%     29.57 29.55 0    
Apr 03 11:44 W 14 3 Light Rain and Fog/Mist BKN015 BKN021 OVC030 57 55     93%     29.57   0    
Apr 03 10:53 WSW 13 10 Light Rain BKN014 OVC029 56 55     97%     29.57 29.55 0    
Apr 03 09:53 SW 7 9 Clear   57 57     100%     29.55 29.53 0 0  
Apr 03 09:30 SW 14 4 Rain and Fog/Mist SCT013 BKN027 OVC070 56 55     97%     29.55   0    
Apr 03 09:20 WSW 9 1.75 Heavy Rain and Fog/Mist SCT013 BKN027 OVC070 56 56     100%     29.55   0    
Apr 03 09:16 WSW 13 2.5 Heavy Rain and Fog/Mist SCT013 BKN027 OVC055 56 56     100%     29.56   0    
Apr 03 09:10 WSW 9 4 Light Rain and Fog/Mist BKN013 BKN027 OVC037 57 56     96%     29.56   0    
Apr 03 08:53 WSW 8 7 Light Rain SCT008 BKN013 OVC035 57 57     100%     29.55 29.54 0    
Apr 03 08:42 WSW 8 3 Light Rain and Fog/Mist FEW007 BKN011 OVC024 57 57     100%     29.55   0    
Apr 03 07:53 SW 9 10 Light Rain SCT015 BKN020 OVC075 58 57     97%     29.54 29.52 0    
Apr 03 07:27 SSW 5 10 Cloudy SCT016 BKN027 OVC055 57 56     96%     29.53   0    
Apr 03 06:53 SW 5 10 Cloudy SCT030 BKN043 OVC110 56 56     100%     29.53 29.51     0
Apr 03 05:53 SSW 9 10 Mostly Cloudy FEW007 BKN012 BKN044 56 56     100%     29.53 29.51 0    
Apr 03 05:28 Calm 8 Light Rain BKN007 OVC012 57 57     100%     29.53   0    
Apr 03 05:22 W 5 10 Cloudy SCT007 BKN010 OVC034 57 57     100%     29.54   0    
Apr 03 04:53 S 11 5 Fog/Mist BKN015 OVC020 57 57     100%     29.54 29.52      
Apr 03 04:51 S 11 5 Thunderstorms and Fog/Mist BKN015 OVC020 57 57     100%     29.54        
Apr 03 04:17 S 3 10 Cloudy BKN013 OVC028 57 57     100%     29.54        
Apr 03 03:53 SSE 3 10 Cloudy FEW014 OVC026 57 57     100%     29.54 29.51      
Apr 03 03:15 Calm 10 Cloudy FEW011 BKN017 OVC025 57 57     100%     29.55        
Apr 03 02:53 SSE 3 10 Cloudy OVC011 58 57     97%     29.57 29.54      
Apr 03 01:53 Calm 10 Cloudy OVC014 58 57     97%     29.6 29.57      
Apr 03 01:21 E 3 10 Cloudy OVC016 58 57     97%     29.59        
Apr 03 00:53 ESE 3 10 Cloudy OVC014 57 57     100%     29.62 29.59      
Apr 03 00:48 E 5 10 Cloudy OVC014 57 57     100%     29.61        
Apr 02 23:53 Calm 10 Cloudy OVC015 56 56     100%     29.66 29.63      
Apr 02 22:53 Calm 5 Fog/Mist OVC018 55 55     100%     29.7 29.67      
Apr 02 21:53 Calm 5 Fog/Mist OVC024 55 55     100%     29.72 29.7      
Apr 02 21:32 Calm 5 Fog/Mist FEW001 OVC026 54 54     100%     29.71        
Apr 02 21:25 Calm 2.5 Fog/Mist FEW001 BKN027 BKN060 54 54     100%     29.7        
Apr 02 21:19 Calm 0.75 Fog/Mist FEW001 BKN027 BKN060 54 54     100%     29.7        
Apr 02 21:10 Calm 1.75 Fog/Mist FEW001 FEW027 SCT060 54 54     100%     29.7        
Apr 02 21:02 Calm 3 Fog/Mist CLR 53 53     100%     29.69        
Apr 02 20:53 Calm 1 Fog/Mist CLR 54 54     100%     29.67 29.66      
Apr 02 20:45 Calm 1.5 Fog/Mist CLR 54 54     100%     29.67        
Apr 02 19:53 Calm 10 Clear CLR 57 57     100%     29.68 29.66      
Apr 02 18:53 NE 5 10 Mostly Cloudy BKN065 58 57     97%     29.68 29.67 0   0
Apr 02 17:53 E 14 9 Light Rain OVC080 58 57     97%     29.71 29.69 0    
Apr 02 16:53 6 4 Rain and Fog/Mist SCT065 OVC090 58 56     93%     29.78 29.76 0    
Apr 02 15:53 SSE 21 7 Light Rain OVC090 63 54     72%     29.81 29.79 0 0  
Apr 02 14:53 SE 10 10 Mostly Clear FEW050 71 51     49%   70 29.81 29.78      
Apr 02 13:53 SE 18 10 Mostly Clear FEW055 71 52     51%   70 29.84 29.8      
Apr 02 12:53 ESE 6 10 Clear CLR 69 54     59%     29.87 29.84      
Apr 02 11:53 Calm 10 Mostly Clear FEW120 66 55     68%     29.88 29.86      
Apr 02 10:53 Calm 10 Clear CLR 63 55     75%     29.93 29.91      
Apr 02 09:53 Calm 10 Clear CLR 61 53     75%     29.95 29.93      
Apr 02 08:53 Calm 10 Mostly Clear FEW120 58 53     84%     29.97 29.94      
Apr 02 07:53 Calm 10 Mostly Clear FEW060 FEW080 55 55     100%     30 29.97      
Apr 02 06:53 N 5 10 Mostly Cloudy SCT048 BKN060 BKN090 56 55     97%     30.01 29.98 0   0
Apr 02 05:53 NNW 10 10 Cloudy BKN050 BKN065 OVC100 56 55     97%     30 29.97 0    
Apr 02 04:53 Calm 10 Mostly Cloudy BKN050 BKN065 BKN120 59 53     81%     30.01 29.98      
Apr 02 03:53 ESE 5 10 Cloudy BKN065 BKN080 OVC110 60 52     75%     30 29.97      
Apr 02 02:53 Calm 10 Partly Cloudy SCT120 58 52     81%     29.99 29.96      
Apr 02 01:53 Calm 10 Partly Cloudy SCT110 60 52     75%     29.99 29.96      
Apr 02 00:53 E 5 10 Cloudy BKN060 OVC110 61 52     72%     30.02 29.98      
Apr 01 23:53 3 10 Cloudy OVC110 61 52     72%     30.03 30      
Apr 01 22:53 E 5 10 Clear CLR 62 52     70%     30.03 30.01      
Apr 01 21:53 Calm 10 Clear CLR 65 52     63%     30.04 30.02      
Apr 01 20:53 SSE 7 10 Clear CLR 66 51     59%     30.01 29.99      
Apr 01 19:53 SSE 9 10 Clear CLR 68 51     55%     30 29.98      
Apr 01 18:53 SE 8 10 Clear CLR 71 50     47%   70 29.99 29.97      
Apr 01 17:53 S 11 10 Clear CLR 74 50     43%   73 29.97 29.95      
Apr 01 16:53 S 13 10 Clear CLR 74 49     41%   73 29.97 29.95      
Apr 01 15:53 S 13 10 Clear CLR 77 51     40%   76 29.97 29.95      
Apr 01 14:53   10 Clear CLR 77 54     45%   77 30 29.98      
Apr 01 13:53 6 10 Mostly Clear FEW046 76 52     43%   75 30.03 30.01      
Apr 01 12:53 WSW 6 10 Clear CLR 72 50     46%   71 30.05 30.03      
Apr 01 11:53 S 6 10 Clear CLR 70 52     53%     30.07 30.05      
Apr 01 10:53 E 8 10 Clear CLR 64 51     63%     30.08 30.06      
Apr 01 09:53 E 10 10 Clear CLR 56 48     75%     30.09 30.08      
Apr 01 08:53 E 8 10 Clear CLR 51 46     83%     30.09 30.09      
Apr 01 07:53 ENE 8 10 Clear CLR 47 45     93% 43   30.08 30.07      
Apr 01 06:53 ENE 7 10 Clear CLR 46 44     93% 42   30.04 30.03      
Apr 01 05:53 NE 3 10 Clear CLR 46 44     93% 45   30.01 30      
Apr 01 04:53 Calm 10 Clear CLR 46 44     93%     30.01 29.99      
Apr 01 03:53 NE 5 10 Clear CLR 47 45     93% 45   30 29.99      
Apr 01 02:53 NE 3 10 Clear CLR 47 45     93% 46   30 29.99      
Apr 01 01:53 NNE 3 10 Clear CLR 48 45     89% 47   30 29.99      
Apr 01 00:53 NE 6 10 Clear CLR 49 46     90% 46   29.99 29.98      
Mar 31 23:53 NNE 5 10 Clear CLR 50 46     86% 48   29.98 29.97      
Mar 31 22:53 6 10 Clear CLR 52 46     80%     29.96 29.95      
Mar 31 21:53 NE 6 10 Clear CLR 54 47     77%     29.95 29.94      
Mar 31 20:53 NE 5 10 Clear CLR 55 47     74%     29.92 29.92      
Mar 31 19:53 NE 5 10 Clear CLR 58 47     67%     29.9 29.89      
Mar 31 18:53 NE 5 10 Clear CLR 62 48     60%     29.89 29.88      
Mar 31 17:53 NE 6 10 Clear CLR 64 47     54%     29.88 29.86      
Mar 31 16:53 NNE 7 10 Clear CLR 64 49     58%     29.88 29.87      
Mar 31 15:53 6 10 Clear CLR 63 48     58%     29.88 29.87      
Mar 31 14:53 3 10 Clear CLR 61 48     62%     29.9 29.89      
Mar 31 13:53 5 10 Clear CLR 58 48     70%     29.92 29.91      
Mar 31 13:18 NE 7 10 Partly Cloudy SCT020 57 47     69%     29.93        
Mar 31 11:53 ENE 6 10 Cloudy OVC014 51 46     83%     29.94 29.93      
Mar 31 10:53 3 10 Cloudy OVC013 49 45     86% 48   29.93 29.93      
Mar 31 09:53 Calm 10 Cloudy OVC012 48 44     86%     29.91 29.91      
Mar 31 08:53 Calm 10 Cloudy OVC012 47 44     90%     29.9 29.9      
Mar 31 06:53 Calm 10 Cloudy OVC012 46 43     89%     29.85 29.85      
Mar 31 05:53 NNE 3 10 Cloudy OVC012 46 43     89% 45   29.83 29.83      
Mar 31 04:53 NW 6 10 Cloudy OVC013 46 43     89% 43   29.82 29.82      
Mar 31 04:21 N 7 10 Cloudy OVC014 46 43     89% 42   29.8        
Mar 31 03:53 NW 11 10 Cloudy OVC015 46 43     89% 41   29.8 29.8      
Mar 31 03:41 NNW 7 10 Cloudy OVC015 46 43     89% 42   29.8        
Mar 31 02:53 NNW 6 10 Cloudy OVC014 46 43     89% 43   29.8 29.8      
Mar 31 01:53 NW 10 10 Cloudy OVC016 47 43     86% 42   29.8 29.8      
Mar 31 00:53 NW 8 10 Cloudy OVC017 47 43     86% 43   29.8 29.8      
Mar 30 23:53 W 9 10 Cloudy OVC019 47 42     83% 43   29.8 29.8      
Mar 30 22:53 W 8 10 Cloudy OVC022 47 43     86% 43   29.79 29.79      
Mar 30 21:53 W 5 10 Cloudy OVC020 47 43     86% 45   29.78 29.78      
Mar 30 20:53 WSW 7 10 Clear   47 42     83% 44   29.76 29.76      
Mar 30 19:53 W 5 10 Cloudy OVC021 47 42     83% 45   29.75 29.75      
Mar 30 18:53 WSW 7 10 Cloudy OVC020 48 43     83% 45   29.74 29.73     0
Mar 30 17:53 W 8 10 Clear   47 43     86% 43   29.72 29.72      
Mar 30 16:53 W 9 10 Cloudy OVC019 47 42     83% 43   29.71 29.7      
Mar 30 15:53 W 13 10 Cloudy OVC017 47 43     86% 41   29.7 29.7   0  
Mar 30 14:53 WSW 15 10 Cloudy OVC015 46 44     93% 40   29.7 29.7 0    
Mar 30 14:18 SW 11 3 Light Rain and Fog/Mist BKN009 BKN014 OVC029 46 45     96% 41   29.69   0    
Mar 30 14:04 SW 10 1.75 Light Rain and Fog/Mist SCT010 BKN014 OVC027 46 45     96% 41   29.69   0    
Mar 30 13:53 SW 9 3 Light Rain and Fog/Mist BKN013 BKN023 OVC029 46 45     96% 41   29.69 29.69 0    
Mar 30 13:50 WSW 10 3 Fog/Mist BKN013 BKN027 OVC034 46 45     93% 41   29.69   0    
Mar 30 13:42 WSW 11 2 Light Rain and Fog/Mist FEW010 BKN015 OVC025 46 44     93% 41   29.69   0    
Mar 30 13:16 SW 14 6 Fog/Mist BKN014 OVC020 46 44     93% 40   29.69   0    
Mar 30 12:53 WSW 14 2.5 Light Rain and Fog/Mist BKN016 OVC021 46 44     93% 40   29.69 29.68 0   0
Mar 30 12:50 SW 10 2 Light Rain and Fog/Mist BKN016 OVC021 46 45     93% 41   29.69   0    
Mar 30 11:53 WSW 10 10 Clear   47 41     80% 42   29.69 29.68      
Mar 30 10:53 SW 10 10 Cloudy OVC019 46 41     82% 41   29.68 29.66 0    
Mar 30 10:01 SW 11 10 Cloudy BKN021 OVC028 47 41     80% 42   29.67        
Mar 30 09:53 WSW 11 10 Cloudy SCT023 BKN030 OVC036 47 41     80% 42   29.67 29.65      
Mar 30 08:53 SW 11 10 Cloudy BKN023 OVC031 46 40     79% 41   29.67 29.65      
Mar 30 07:53 SW 14 10 Cloudy OVC021 45 39     80% 39   29.68 29.66      
Mar 30 06:53 WSW 10 10 Cloudy OVC022 46 40     79% 41   29.68 29.66      
Mar 30 05:53 SW 11 10 Cloudy OVC021 46 41     82% 41   29.66 29.64      
Mar 30 04:53 SSW 6 10 Mostly Cloudy BKN019 46 42     86% 43   29.66 29.64      
Mar 30 04:22 SW 11 10 Mostly Cloudy BKN018 BKN075 46 41     82% 41   29.67        
Mar 30 03:53 SW 10 10 Mostly Cloudy BKN065 BKN080 47 42     83% 42   29.68 29.66      
Mar 30 02:53 WSW 8 10 Clear CLR 49 43     80% 45   29.69 29.67      
Mar 30 01:53 SW 8 10 Mostly Clear FEW090 51 46     83%     29.69 29.67      
Mar 30 00:53 SW 7 10 Mostly Clear FEW070 54 49     83%     29.7 29.68      
Mar 29 23:53 SW 7 10 Clear CLR 57 50     77%     29.71 29.68      
Mar 29 22:53 WSW 6 10 Clear CLR 60 53     78%     29.7 29.67      
Mar 29 21:53 W 9 10 Mostly Clear FEW060 62 53     72%     29.71 29.68      
Mar 29 20:53 SE 3 10 Clear CLR 65 58     78%     29.69 29.66      
Mar 29 19:53 SSE 6 10 Clear CLR 66 58     75%     29.68 29.65      
Mar 29 18:53 S 11 10 Mostly Clear FEW060 FEW075 69 57     65%     29.68 29.65      
Mar 29 17:53 S 21 10 Mostly Clear and Windy FEW042 71 57     61%   71 29.67 29.64      
Mar 29 16:53 S 20 10 Mostly Clear and Windy FEW070 71 59     66%   71 29.69 29.65      
Mar 29 15:53 S 18 10 Mostly Cloudy SCT037 SCT045 BKN060 72 59     64%   72 29.71 29.68      
Mar 29 14:53 S 18 10 Cloudy OVC037 68 57     68%     29.72 29.69      
Mar 29 13:53 S 21 10 Mostly Cloudy and Windy FEW035 BKN060 71 59     66%   71 29.73 29.69      
Mar 29 12:53 S 20 10 Clear and Windy CLR 70 57     63%     29.71 29.67     0
Mar 29 11:53 S 20 10 Mostly Clear and Windy FEW046 72 57     59%   72 29.72 29.68      
Mar 29 10:53 ESE 9 10 Clear CLR 65 58     78%     29.71 29.69      
Mar 29 09:53 ESE 16 10 Clear CLR 62 58     86%     29.71     0  
Mar 29 09:13 SSE 10 10 Cloudy SCT021 BKN090 OVC110 60 58     93%     29.77        
Mar 29 08:53 S 11 4 Fog/Mist BKN021 OVC028 60 58     93%     29.79 29.77 0    
Mar 29 08:28 SSW 15 4 Rain and Fog/Mist FEW020 BKN026 OVC075 61 59     93%     29.8   0    
Mar 29 07:53 SE 14 10 Mostly Cloudy FEW027 BKN075 BKN120 64 56     75%     29.76 29.72      
Mar 29 06:53 SE 14 10 Clear CLR 62 56     80%     29.74 29.71      
Mar 29 05:53 ESE 14 10 Mostly Cloudy BKN065 BKN080 62 57     84%     29.76 29.73      
Mar 29 04:53 ESE 6 10 Cloudy BKN055 OVC070 63 57     81%     29.79 29.76      
Mar 29 03:53 E 9 10 Mostly Cloudy SCT028 BKN060 BKN080 63 57     81%     29.78 29.75      
Mar 29 03:44 ESE 8 10 Mostly Cloudy BKN029 BKN060 BKN080 64 58     81%     29.8        
Mar 29 02:53 SE 10 10 Cloudy SCT030 BKN050 OVC090 65 58     78%     29.81 29.77      
Mar 29 01:53 ESE 10 10 Cloudy FEW034 BKN050 OVC070 65 58     78%     29.81 29.77      
Mar 29 00:53 ESE 11 10 Partly Cloudy SCT095 64 58     81%     29.82 29.79 0   0
Mar 28 23:53 ESE 11 10 Light Rain SCT055 BKN065 OVC080 65 58     78%     29.85 29.82 0    
Mar 28 22:53 ESE 10 10 Cloudy FEW060 OVC090 65 58     78%     29.85 29.83      
Mar 28 21:53 ESE 9 10 Mostly Cloudy BKN100 66 58     75%     29.85 29.83      
Mar 28 20:53 SSE 8 10 Mostly Cloudy BKN075 67 58     73%     29.87 29.85      
Mar 28 19:53 SE 7 10 Cloudy SCT043 SCT050 OVC070 69 58     68%     29.88 29.86      
Mar 28 18:53 SSE 11 10 Cloudy BKN044 BKN050 OVC065 71 57     61%   71 29.87 29.85      
Mar 28 17:53 S 13 10 Mostly Clear FEW050 73 57     57%   73 29.85 29.83      
Mar 28 16:53 S 9 10 Mostly Clear FEW055 76 55     48%   75 29.84 29.82      
Mar 28 15:53 ENE 9 10 Clear CLR 75 57     54%   75 29.86 29.83      
Mar 28 14:53 ENE 7 10 Clear CLR 74 56     53%   74 29.89 29.87      
Mar 28 13:53 E 6 10 Clear CLR 70 55     59%     29.94 29.92      
Mar 28 12:53 3 10 Clear CLR 67 54     63%     29.99 29.97      
Mar 28 11:53 3 10 Mostly Clear FEW023 63 54     72%     30.02 30      
Mar 28 10:53 3 10 Cloudy OVC019 58 52     81%     30.02 30.01